Temp
9 9 9 10 10 11 11 12 12 13 13 13 13 13 13 12 12 12 12 12 12 12 12 12 12 11 11 10 10 10 9 9 9 9 9 9 9 10 10 10 9 9
9 9 9 9 10 10 11 11 12 12 12 12 12 12 12 12 12 12 12 12 12 12 12 12 12 12 11 11 11 11 10 9 9 9 9 8 8 9 9 9 9 9
9 9 9 9 10 10 11 11 11 11 11 11 11 11 11 11 11 11 11 11 12 12 12 12 12 12 11 11 11 11 10 10 10 10 9 9 8 8 8 8 8 8
9 9 9 10 10 10 11 11 11 10 10 10 10 10 10 10 10 10 11 11 11 11 11 11 11 11 11 10 10 10 10 10 10 10 10 9 9 8 8 8 8 8
9 9 9 9 10 10 10 11 11 10 10 10 10 10 10 10 10 9 9 10 10 10 10 10 10 10 10 10 10 9 9 9 9 9 9 9 9 9 9 8 8 8
8 9 9 9 9 10 10 10 10 10 10 10 10 9 9 9 9 8 8 8 8 8 9 9 9 9 9 9 9 9 9 8 8 8 9 9 9 9 9 9 8 8
8 8 8 9 9 10 10 9 9 9 9 9 9 9 9 8 8 7 7 7 7 7 7 8 8 8 9 9 9 8 8 8 8 8 8 8 9 9 9 9 9 8
8 8 8 8 9 10 9 9 9 8 8 8 8 8 8 8 7 7 7 6 7 7 7 7 7 7 8 8 8 8 8 8 8 8 8 8 8 8 8 9 9 8
7 7 7 8 8 8 8 8 8 8 7 7 8 7 7 7 6 6 6 6 6 6 6 6 6 6 7 7 7 7 7 7 6 6 6 7 7 7 7 8 8 8
7 7 7 7 7 7 7 7 7 7 7 7 7 6 6 6 6 6 6 6 6 6 6 6 6 6 6 6 6 6 6 5 5 5 5 5 5 5 6 6 6 6
6 6 6 6 6 6 6 6 6 6 6 6 6 6 6 6 6 6 6 6 6 6 6 6 6 6 6 6 5 5 5 5 5 5 5 4 4 4 4 4 4 4
5 5 5 5 6 6 6 6 6 6 6 6 6 6 6 6 6 6 6 6 6 5 5 5 5 5 5 5 5 5 4 4 4 4 4 4 4 4 4 4 4 3
5 5 5 5 5 6 6 6 6 6 6 6 6 6 6 6 6 6 6 6 5 5 5 5 5 5 5 5 4 4 4 4 4 4 4 4 4 4 4 3 3 3
4 4 4 5 5 5 5 6 6 6 6 6 6 6 6 6 6 6 6 5 5 5 5 5 5 5 5 5 4 4 3 3 3 3 3 3 3 3 3 3 3 3
4 4 4 5 5 5 5 5 5 6 6 6 6 6 6 6 5 5 5 5 5 5 5 5 5 5 4 3 4 4 3 3 3 2 3 3 3 3 3 3 3 3
3 4 4 5 5 5 5 5 5 5 5 5 6 5 5 5 5 5 5 5 5 5 5 5 4 4 3 3 3 3 3 3 3 2 2 2 3 3 3 3 3 3
3 4 4 4 4 4 4 5 5 5 5 5 5 5 5 5 5 5 5 5 5 4 4 4 4 3 3 3 3 3 3 3 3 3 2 2 2 2 2 2 2 2
3 4 4 4 4 4 4 4 4 5 5 5 5 5 5 4 4 4 4 4 4 4 4 4 3 3 3 3 3 3 3 3 3 3 2 2 2 2 2 2 2 2
3 3 3 3 3 3 4 4 4 4 4 4 4 4 4 4 4 4 4 4 4 4 3 3 3 2 2 2 2 2 3 3 2 2 2 2 2 1 1 1 1 1
3 3 3 3 3 3 3 4 4 4 4 4 4 4 4 4 4 4 4 4 3 3 3 2 2 2 2 2 2 2 2 2 2 2 2 1 1 1 1 0 0 0
3 3 3 3 3 3 3 3 3 3 3 4 4 4 4 4 4 4 3 3 3 2 2 2 1 1 1 2 2 2 2 2 2 2 2 1 1 0 -0 -0 -0 -0
3 3 3 3 3 3 3 3 3 3 3 3 3 4 4 4 4 3 3 3 2 2 2 1 0 0 1 1 1 2 2 2 2 1 1 1 0 -0 -0 -0 -1 -1
3 3 3 3 2 3 3 3 3 3 3 3 3 4 3 3 3 3 3 2 2 2 1 0 -0 -0 -0 -0 0 1 1 1 1 1 0 -0 -0 -0 -1 -1 -1 -2
2 2 2 2 2 2 2 2 3 3 3 3 3 3 3 3 3 3 2 2 2 1 0 -0 -1 -1 -1 -1 -1 -1 -1 -1 -1 -1 -1 -1 -1 -1 -1 -1 -1 -1
2 2 2 2 2 2 2 2 3 3 3 3 3 3 3 3 3 2 2 2 1 1 0 0 -1 -1 -1 -1 -2 -2 -2 -2 -2 -2 -2 -2 -1 -1 -1 -1 -1 -1
2 1 1 2 2 2 2 2 2 3 3 3 3 3 3 2 2 2 2 1 1 1 0 0 -1 -1 -2 -2 -2 -3 -3 -3 -3 -3 -2 -2 -2 -2 -1 -1 -1 -1
Height
1547 1547 1546 1546 1545 1544 1544 1543 1543 1543 1543 1542 1542 1541 1540 1539 1538 1537 1536 1535 1534 1533 1532 1532 1531 1530 1529 1528 1527 1526 1525 1525 1524 1524 1524 1524 1523 1523 1522 1521 1520 1519
1547 1547 1546 1546 1545 1544 1544 1543 1543 1543 1542 1542 1542 1541 1541 1540 1539 1537 1536 1535 1534 1533 1532 1531 1530 1529 1528 1526 1525 1524 1523 1522 1521 1521 1520 1520 1520 1519 1519 1518 1517 1516
1547 1547 1546 1546 1545 1544 1544 1543 1543 1543 1542 1542 1542 1541 1541 1540 1539 1538 1537 1535 1534 1533 1532 1531 1530 1528 1527 1526 1524 1522 1521 1520 1519 1518 1517 1516 1516 1515 1515 1514 1513 1513
1547 1547 1547 1546 1545 1545 1544 1543 1543 1543 1543 1542 1542 1541 1540 1540 1539 1538 1537 1536 1535 1533 1532 1530 1529 1528 1527 1525 1523 1522 1520 1519 1517 1516 1515 1514 1513 1511 1511 1510 1509 1509
1548 1548 1547 1547 1546 1545 1544 1544 1544 1543 1543 1542 1541 1541 1540 1539 1538 1538 1537 1536 1534 1533 1532 1530 1529 1527 1526 1524 1523 1521 1519 1518 1517 1515 1514 1512 1511 1509 1508 1507 1506 1505
1549 1548 1548 1547 1546 1546 1545 1545 1544 1544 1543 1542 1541 1540 1540 1539 1538 1537 1536 1535 1534 1533 1531 1530 1528 1527 1525 1524 1522 1520 1519 1517 1516 1514 1513 1511 1509 1508 1506 1504 1503 1502
1549 1549 1548 1548 1547 1546 1546 1545 1545 1544 1543 1543 1542 1541 1540 1539 1538 1537 1536 1535 1534 1533 1531 1530 1528 1527 1525 1523 1522 1520 1518 1517 1515 1513 1512 1510 1508 1506 1504 1502 1501 1499
1550 1549 1549 1548 1548 1547 1546 1546 1545 1544 1544 1543 1542 1541 1540 1540 1539 1538 1537 1536 1534 1533 1532 1530 1528 1526 1525 1523 1521 1519 1517 1516 1514 1512 1510 1508 1506 1505 1503 1501 1499 1497
1550 1550 1549 1549 1548 1548 1547 1546 1546 1545 1544 1543 1542 1542 1541 1540 1540 1539 1537 1536 1535 1533 1532 1530 1528 1527 1525 1522 1520 1518 1517 1515 1513 1511 1509 1507 1505 1503 1501 1499 1497 1495
1551 1551 1550 1550 1549 1548 1548 1547 1546 1546 1545 1544 1544 1543 1542 1542 1541 1540 1538 1537 1535 1534 1532 1530 1529 1527 1525 1523 1521 1519 1517 1515 1513 1511 1509 1506 1504 1502 1500 1498 1496 1494
1552 1552 1551 1550 1550 1549 1548 1548 1547 1547 1546 1546 1545 1544 1543 1543 1542 1540 1539 1537 1535 1534 1532 1531 1529 1527 1525 1523 1521 1519 1517 1515 1513 1510 1509 1506 1504 1502 1500 1498 1496 1493
1553 1553 1552 1552 1551 1550 1550 1549 1549 1549 1548 1547 1546 1545 1544 1544 1542 1541 1539 1538 1536 1535 1533 1531 1529 1527 1525 1523 1521 1519 1517 1515 1513 1511 1508 1506 1504 1502 1500 1498 1495 1493
1554 1554 1553 1553 1552 1552 1551 1551 1550 1550 1549 1548 1547 1547 1546 1544 1543 1542 1540 1539 1537 1536 1534 1532 1530 1527 1525 1523 1521 1519 1517 1515 1513 1510 1508 1506 1504 1502 1500 1498 1495 1493
1555 1555 1555 1554 1554 1553 1553 1552 1552 1551 1550 1549 1549 1548 1547 1545 1544 1543 1541 1540 1538 1536 1534 1532 1530 1527 1525 1523 1521 1519 1517 1515 1512 1510 1508 1506 1504 1502 1499 1497 1495 1492
1556 1556 1556 1556 1555 1555 1554 1554 1553 1552 1551 1551 1550 1549 1548 1546 1545 1544 1542 1541 1539 1537 1535 1533 1530 1528 1525 1523 1521 1519 1517 1515 1512 1510 1507 1505 1503 1500 1498 1496 1493 1491
1558 1558 1557 1557 1556 1556 1556 1555 1554 1554 1553 1552 1551 1550 1549 1547 1546 1545 1543 1541 1539 1537 1535 1533 1531 1529 1527 1525 1522 1520 1517 1515 1512 1510 1507 1504 1502 1499 1496 1494 1492 1489
1559 1559 1559 1558 1558 1558 1557 1556 1556 1555 1554 1553 1552 1551 1550 1548 1547 1545 1544 1542 1540 1538 1536 1534 1532 1530 1528 1525 1523 1520 1518 1515 1513 1510 1507 1504 1501 1498 1495 1492 1490 1487
1560 1560 1560 1559 1559 1559 1558 1558 1557 1557 1556 1555 1554 1552 1551 1549 1548 1546 1544 1542 1540 1538 1536 1534 1532 1530 1528 1526 1523 1521 1518 1516 1513 1510 1507 1505 1501 1498 1495 1491 1488 1485
1561 1561 1561 1561 1560 1560 1560 1560 1559 1558 1557 1556 1554 1553 1551 1550 1548 1546 1544 1542 1540 1538 1537 1534 1533 1531 1528 1526 1523 1521 1518 1516 1513 1510 1508 1505 1501 1498 1495 1491 1488 1484
1562 1562 1562 1562 1562 1562 1562 1561 1560 1559 1558 1556 1555 1554 1552 1550 1548 1547 1545 1543 1541 1539 1537 1535 1533 1531 1528 1526 1524 1521 1518 1516 1513 1510 1507 1504 1501 1498 1495 1492 1488 1484
1564 1564 1563 1563 1563 1563 1563 1562 1561 1560 1558 1557 1555 1554 1552 1550 1549 1547 1545 1543 1541 1540 1538 1536 1533 1531 1529 1526 1524 1521 1518 1515 1513 1510 1507 1504 1502 1498 1495 1492 1488 1484
1565 1565 1564 1564 1565 1564 1564 1563 1562 1561 1559 1558 1556 1555 1553 1551 1549 1548 1546 1544 1542 1540 1538 1536 1534 1532 1529 1526 1524 1521 1518 1515 1512 1509 1507 1504 1501 1498 1495 1492 1488 1485
1566 1566 1566 1566 1566 1565 1565 1563 1562 1561 1560 1559 1557 1556 1554 1552 1550 1548 1546 1544 1543 1541 1539 1537 1534 1532 1529 1527 1524 1521 1518 1515 1512 1509 1507 1504 1502 1499 1496 1493 1490 1486
1567 1567 1567 1567 1567 1566 1565 1564 1563 1562 1560 1559 1558 1556 1554 1552 1551 1549 1547 1545 1544 1541 1539 1537 1535 1533 1530 1527 1524 1521 1518 1515 1512 1510 1507 1505 1502 1500 1497 1494 1490 1487
1568 1569 1568 1568 1567 1566 1565 1565 1564 1562 1561 1560 1559 1557 1555 1554 1552 1550 1548 1546 1544 1542 1540 1538 1536 1533 1530 1527 1525 1522 1519 1516 1513 1511 1508 1505 1503 1500 1497 1494 1491 1487
1570 1570 1569 1569 1568 1567 1566 1565 1565 1564 1563 1561 1560 1558 1557 1555 1554 1552 1550 1548 1545 1543 1541 1539 1536 1534 1531 1528 1525 1523 1520 1517 1515 1512 1509 1507 1504 1501 1497 1494 1490 1486
Wind_Speed
9 9 9 9 9 9 9 9 10 10 10 11 12 13 15 16 18 18 18 18 18 19 20 22 23 25 26 26 26 26 26 25 25 25 25 26 26 25 24 25 27 29
8 8 9 9 9 8 8 8 9 9 10 11 12 13 14 15 16 17 18 18 19 19 20 21 23 24 26 27 27 27 28 27 26 26 27 27 28 27 27 27 28 28
7 7 7 7 8 8 8 9 9 9 10 11 12 12 13 13 14 15 16 17 17 18 19 20 21 22 23 24 25 26 26 26 25 25 25 25 26 28 28 28 29 29
7 7 7 7 8 8 8 8 8 8 10 11 11 12 13 14 14 15 16 16 16 17 18 19 20 21 22 23 23 23 23 23 23 23 23 22 23 24 25 26 28 29
8 8 8 7 7 7 6 7 7 9 10 12 13 14 15 15 16 16 16 17 17 18 19 20 21 22 23 23 24 24 23 23 22 22 22 22 22 23 23 23 24 25
8 9 8 7 7 7 6 7 8 10 11 13 13 14 15 15 15 16 16 17 18 19 20 21 21 22 23 23 24 24 23 23 22 22 22 22 22 23 23 23 23 23
9 9 9 9 9 8 9 9 11 12 13 13 14 14 15 15 15 15 15 16 17 18 19 20 21 22 23 23 24 24 24 24 24 23 23 22 22 22 23 24 24 23
9 10 10 10 10 10 11 12 13 14 15 15 15 16 16 16 16 16 16 17 17 18 19 20 22 23 24 25 25 26 26 27 27 27 27 26 25 25 24 25 25 24
9 9 10 10 11 12 13 14 14 15 15 16 16 17 17 17 17 17 17 17 18 19 20 21 22 23 24 25 26 28 28 29 29 29 29 29 29 28 27 26 27 26
9 9 10 11 12 13 14 14 14 15 15 16 16 16 17 17 17 17 17 18 19 20 21 22 23 24 25 26 27 28 29 30 30 30 30 30 30 30 29 28 28 28
10 10 11 12 13 13 13 14 14 15 16 16 17 17 17 17 18 18 19 20 21 22 23 23 24 25 26 26 27 28 29 30 31 31 31 30 29 29 28 28 28 27
11 12 13 14 13 13 13 14 15 16 17 17 18 18 18 19 20 20 21 22 23 23 24 25 26 26 27 28 28 29 29 30 31 31 31 31 30 29 28 27 26 26
13 14 15 15 15 14 15 16 17 17 18 19 19 19 20 21 21 22 22 23 24 24 25 26 27 28 29 30 30 29 29 30 30 31 31 31 31 30 28 27 26 25
14 15 16 17 17 17 17 18 18 19 20 20 20 20 21 21 22 22 22 23 24 25 26 27 28 29 30 31 31 30 30 30 30 31 31 31 31 30 29 28 27 25
13 15 16 17 18 18 18 19 19 20 20 20 20 21 21 22 22 22 22 23 24 24 25 26 28 29 31 32 31 31 30 30 30 30 31 32 32 31 31 30 28 27
13 15 17 17 18 18 19 19 19 19 19 19 20 20 20 21 21 21 22 22 23 24 25 26 28 29 30 31 31 31 30 30 30 30 31 32 33 33 33 32 31 30
15 16 17 17 18 17 18 18 18 18 18 19 19 19 19 19 20 20 21 22 23 24 25 26 28 29 29 29 30 31 30 29 29 30 30 32 34 35 35 35 34 33
16 16 16 16 16 16 16 17 17 17 18 19 19 19 19 19 20 21 21 22 23 24 25 26 27 28 28 28 29 31 30 30 29 29 30 31 33 35 36 37 37 37
16 15 16 15 15 15 15 15 17 18 19 19 19 19 19 19 20 21 21 22 23 24 25 26 27 27 27 28 29 30 31 30 29 29 30 31 33 35 36 38 39 39
16 15 15 15 15 15 15 16 17 18 19 20 20 20 20 20 21 21 21 22 23 24 25 25 26 27 28 29 30 30 31 31 31 30 30 30 32 35 37 38 38 39
17 17 17 17 16 16 16 17 18 19 20 21 21 22 22 22 22 22 22 23 23 24 24 25 26 28 29 31 31 31 30 31 31 30 30 30 32 35 36 37 38 38
19 19 19 18 18 17 17 18 20 21 22 22 23 23 23 23 23 24 24 24 24 24 24 25 27 28 30 33 33 32 31 30 31 30 31 32 33 35 36 36 37 37
21 20 20 19 18 18 19 20 21 22 23 23 23 24 25 25 26 25 25 25 24 25 25 26 27 29 31 33 34 33 32 32 32 32 32 33 34 34 35 35 35 35
22 21 20 20 19 19 20 21 22 23 23 24 24 25 26 27 27 26 26 25 25 25 25 26 27 29 31 33 33 32 33 33 33 33 34 34 34 34 34 34 34 34
21 21 20 20 20 20 20 21 21 22 23 23 24 26 26 27 27 27 27 26 26 25 25 26 27 29 32 33 32 31 31 32 33 34 34 34 34 34 34 34 34 34
20 20 20 20 20 19 19 20 20 21 21 22 23 25 25 26 27 27 28 28 27 27 27 28 29 31 32 33 31 30 30 31 32 34 34 34 33 33 34 34 34 35
Wind_Direction
319 322 324 325 325 323 319 318 318 319 320 320 321 323 326 329 329 328 326 323 318 314 311 308 305 304 302 302 300 299 296 293 289 287 286 287 289 293 295 295 297 300
334 338 342 340 340 342 340 341 340 338 337 336 335 335 336 336 334 332 330 327 323 319 316 313 310 309 308 308 308 308 308 307 303 299 294 291 289 289 291 291 292 293
352 355 357 358 0 3 4 1 355 352 350 346 344 344 346 345 344 343 340 336 332 328 325 323 322 322 322 321 322 322 323 323 321 317 312 306 299 295 292 290 289 289
15 17 20 21 21 21 17 7 357 356 355 352 352 353 354 354 355 354 351 348 345 343 342 340 338 338 337 337 337 337 338 337 335 333 330 326 319 311 303 297 292 289
29 29 29 28 26 22 13 2 358 357 355 354 355 355 355 355 356 357 355 353 352 350 349 347 344 343 343 343 343 343 343 342 340 339 337 334 331 326 319 312 304 298
42 42 40 34 27 20 11 9 8 4 2 1 360 358 358 359 360 0 358 356 354 352 350 349 347 345 345 345 346 346 346 345 344 342 339 337 334 331 327 322 316 309
50 49 46 40 36 31 31 34 29 24 23 19 15 14 13 12 12 10 6 3 0 359 358 357 355 353 351 350 350 351 351 350 349 347 345 342 339 335 331 327 323 316
54 51 48 45 45 44 43 42 38 36 35 31 28 27 25 24 23 21 18 14 12 10 9 7 4 1 359 356 354 354 354 353 352 351 350 349 346 342 338 334 330 324
61 57 54 51 51 50 48 46 43 41 39 35 34 32 31 30 30 28 25 21 18 16 13 11 8 6 4 1 359 358 358 357 356 355 354 353 351 349 346 342 337 333
71 65 61 57 55 54 52 49 46 44 41 39 37 35 34 33 31 29 25 21 19 16 13 11 9 7 6 5 4 3 2 1 359 359 359 357 355 352 350 347 344 341
76 70 63 60 59 56 54 52 49 46 44 41 39 36 34 31 28 26 23 20 18 16 13 11 10 8 7 6 6 5 4 2 1 1 0 359 357 354 351 349 346 344
77 72 67 64 63 60 58 56 52 49 46 44 41 38 35 31 28 26 23 22 21 19 17 15 14 12 11 10 8 6 4 3 2 1 1 0 358 355 352 348 345 343
75 70 67 67 66 65 62 59 56 52 50 48 45 41 39 35 32 29 27 25 24 22 20 18 16 14 14 13 11 8 6 4 2 2 0 360 359 357 353 349 345 343
73 68 66 67 67 66 64 61 58 55 52 50 46 42 40 36 34 31 28 26 24 22 20 17 15 14 13 12 10 9 7 5 4 2 0 359 358 357 355 351 348 345
75 71 69 70 70 68 65 61 58 55 51 47 44 40 38 34 32 29 26 25 23 20 19 16 15 15 14 11 10 8 7 5 3 2 0 359 358 356 355 354 351 348
80 77 76 74 72 68 64 59 56 52 48 45 41 39 37 34 30 27 25 24 23 21 19 17 17 16 14 11 10 9 6 4 2 1 1 0 359 358 356 356 355 352
87 84 80 76 71 66 62 57 52 49 46 44 41 39 37 34 31 28 27 25 23 21 20 19 18 16 12 9 9 8 7 5 2 0 0 1 1 0 359 358 357 355
90 85 79 74 69 63 59 55 51 48 46 44 42 41 38 35 31 29 28 26 24 22 20 19 18 15 12 9 7 7 6 6 4 2 1 2 2 2 1 0 359 357
88 83 77 72 67 62 58 54 51 48 46 44 43 42 38 35 33 31 30 27 25 23 21 20 17 14 12 10 9 7 5 5 5 4 3 3 4 4 4 3 1 358
87 83 79 75 71 66 61 56 52 49 47 46 44 42 39 37 35 33 32 30 27 24 21 19 17 14 12 12 12 10 5 4 6 6 5 5 5 5 6 5 3 1
89 85 82 78 75 70 64 58 54 50 48 46 43 41 39 38 37 35 34 31 28 24 22 19 16 14 12 12 13 13 9 7 7 7 6 6 7 6 6 5 4 3
85 82 80 77 74 71 66 61 56 53 50 47 44 42 40 38 37 36 34 32 28 25 23 21 17 15 13 12 14 15 12 10 9 9 8 8 7 7 6 6 5 5
80 77 76 76 74 71 67 61 57 53 50 47 44 41 40 38 37 36 33 31 28 25 24 22 18 16 15 15 16 17 15 13 12 11 11 9 8 7 6 6 7 7
79 75 73 72 71 69 65 59 55 52 48 46 43 41 40 39 37 36 34 31 29 27 25 23 20 18 17 19 20 20 17 15 14 13 12 10 8 7 7 7 7 7
78 75 71 69 67 65 62 57 53 50 47 45 43 41 40 39 38 36 35 34 32 30 28 26 24 22 22 24 25 23 19 18 15 14 13 11 8 7 7 7 7 7
78 74 70 67 63 61 59 55 52 49 47 45 43 41 40 39 38 37 37 37 35 33 31 30 28 26 26 27 28 26 23 20 18 16 13 11 9 9 8 8 8 8